COSMOS 2513

Last updated on Tue Sep 22 2026 00:03:13 GMT+0000 (Coordinated Universal Time)

1 41121U 15075A 26264.36245012 -.00000142 00000+0 00000+0 0 9996 2 41121 0.0474 103.9956 0001411 100.2544 6.7429 1.00272469 39519
UTC large
Height (km)
Speed (km/s)
/
Latitude / Longitude
Inclination (degrees)
Orbital Period (minutes)
Azimuth
Elevation
Range (km)
Doppler Factor

Next 0 passes for location: London (51.5072 / 0.1276)

No passes found over London.
COSMOS 2513